Location: Marcé
(47.5801°N, 0.3280°W)
Time: 07:49:16
(UTC+01:00)

Vanguard 1 - Pass Details

Date: 08 December 2021
Orbit: 652 x 3830 km, 34.2° (Epoch: 16 January)

Event Time Altitude Azimuth Distance (km) Brightness Sun altitude
Rises 20:13:43 0° 170° (S) 6,094 14.0 -30.0°
Reaches altitude 10° 20:21:04 10° 147° (SSE) 5,777 13.7 -31.2°
Enters shadow 20:22:43 11° 141° (SE) 5,785 13.6 -31.5°
